Weather History for Sheridan, WY

Change the Weather History Date:

Friday, January 13, 2012

  Actual Average Record
Temperature  
Mean Temperature 33 °F 24 °F  
Max Temperature 46 °F 36 °F 60 °F (1943)
Min Temperature 19 °F 11 °F -26 °F (1997)
Degree Days  
Heating Degree Days 32 41  
Month to date heating degree days 434 542  
Since 1 July heating degree days 3271 3725  
Cooling Degree Days 0 0  
Month to date cooling degree days 0 0  
Year to date cooling degree days 0 0  
Moisture  
Dew Point 17 °F    
Average Humidity 51    
Maximum Humidity 74    
Minimum Humidity 28    
Precipitation  
Precipitation 0.00 in 0.01 in 0.38 in (1928)
Month to date precipitation 0.07 0.21  
Year to date precipitation 0.07 0.21  
Sea Level Pressure  
Sea Level Pressure 30.06 in    
Wind  
Wind Speed 9 mph (West)    
Max Wind Speed 35 mph    
Max Gust Speed 40 mph    
Visibility 10 miles    
Events      
T = Trace of Precipitation, MM = Missing Value Source: NWS Daily Summary

Daily Weather History Graph

Daily Weather History Graph

Search for Another Location

Airport:

Trip Planner

Search our weather history database for the weather conditions in past years. The results will help you decide how hot, cold, wet, or windy it might be!

Date:

Astronomy

Jan. 13, 2012 Rise Set
Actual Time 7:42 AM MST 4:50 PM MST
Civil Twilight 7:10 AM MST 5:23 PM MST
Nautical Twilight 6:33 AM MST 5:59 PM MST
Astronomical Twilight 5:58 AM MST 6:34 PM MST
Moon 10:22 PM MST (1/13) 9:44 AM MST (1/13)
Length of Visible Light 10h 12m
Length of Day
9h 07m
Waning Gibbous, 78% of the Moon is Illuminated
Jan 13
Waning Gibbous
Jan 16
Last Quarter
Jan 23
New
Jan 30
First Quarter
Feb 7
Full

Hourly Weather History & Observations

Time (MST) Temp. Windchill Dew Point Humidity Pressure Visibility Wind Dir Wind Speed Gust Speed Precip Events Conditions
12:53 AM 23.0 °F 18.4 °F 10.9 °F 60% 30.09 in 10.0 mi South 3.5 mph - N/A   Partly Cloudy
1:53 AM 24.1 °F 17.0 °F 10.9 °F 57% 30.06 in 10.0 mi South 5.8 mph - N/A   Mostly Cloudy
2:53 AM 23.0 °F 17.0 °F 12.9 °F 65% 30.05 in 10.0 mi Variable 4.6 mph - N/A   Overcast
3:53 AM 24.1 °F 19.7 °F 14.0 °F 65% 30.03 in 10.0 mi SE 3.5 mph - N/A   Overcast
4:53 AM 28.9 °F 23.9 °F 18.0 °F 64% 30.03 in 10.0 mi WNW 4.6 mph - N/A   Overcast
5:53 AM 25.0 °F - 18.0 °F 75% 30.04 in 10.0 mi Calm Calm - N/A   Overcast
6:53 AM 28.0 °F 22.8 °F 19.0 °F 69% 30.01 in 10.0 mi WSW 4.6 mph - N/A   Scattered Clouds
7:53 AM 26.1 °F - 18.0 °F 71% 30.00 in 10.0 mi Calm Calm - N/A   Partly Cloudy
8:53 AM 30.0 °F 26.5 °F 17.1 °F 59% 30.01 in 10.0 mi West 3.5 mph - N/A   Clear
9:53 AM 37.0 °F - 19.0 °F 48% 30.01 in 10.0 mi Calm Calm - N/A   Clear
10:53 AM 41.0 °F 34.3 °F 21.0 °F 45% 30.00 in 10.0 mi NW 11.5 mph - N/A   Clear
11:53 AM 44.1 °F 35.7 °F 19.0 °F 37% 29.97 in 10.0 mi NW 20.7 mph 28.8 mph N/A   Clear
12:53 PM 46.0 °F 36.5 °F 15.1 °F 29% 29.95 in 10.0 mi NW 31.1 mph 40.3 mph N/A   Clear
1:53 PM 45.0 °F 36.0 °F 18.0 °F 34% 29.97 in 10.0 mi NW 25.3 mph 38.0 mph N/A   Clear
2:53 PM 41.0 °F 30.7 °F 17.1 °F 38% 30.02 in 10.0 mi NNW 25.3 mph 33.4 mph N/A   Partly Cloudy
3:53 PM 37.9 °F 28.2 °F 18.0 °F 45% 30.06 in 10.0 mi NNW 18.4 mph - N/A   Partly Cloudy
4:53 PM 34.0 °F 23.8 °F 16.0 °F 48% 30.11 in 10.0 mi NW 16.1 mph 25.3 mph N/A   Clear
5:53 PM 30.9 °F 20.2 °F 17.1 °F 57% 30.17 in 10.0 mi NW 15.0 mph - N/A   Clear
6:53 PM 28.9 °F 22.8 °F 18.0 °F 64% 30.18 in 10.0 mi West 5.8 mph - N/A   Clear
7:53 PM 30.2 °F 25.4 °F 17.6 °F 60% 30.07 in 10.0 mi WNW 4.6 mph - N/A   Clear
8:53 PM 25.0 °F 20.7 °F 17.1 °F 72% 30.19 in 10.0 mi South 3.5 mph - N/A   Clear
9:53 PM 24.8 °F 19.1 °F 15.8 °F 69% 30.07 in 10.0 mi SW 4.6 mph - N/A   Clear
10:53 PM 23.0 °F - 16.0 °F 74% 30.17 in 10.0 mi Calm Calm - N/A   Clear
11:53 PM 21.9 °F 15.7 °F 16.0 °F 78% 30.15 in 10.0 mi SSW 4.6 mph - N/A   Clear